Tracking 19574 objects as of 16-Feb-2019
HD Live streaming from Space Station
objects crossing your sky now

FLOCK 3P 30

Track FLOCK 3P 30 now!
10-day predictions
FLOCK 3P 30 is classified as:


NORAD ID: 41987
Int'l Code: 2017-008AR
Perigee: 493.1 km
Apogee: 502.3 km
Inclination: 97.4 °
Period: 94.4 minutes
Semi major axis: 6868 km
RCS: Unknown
Launch date: February 15, 2017
Source: United States (US)
Launch site: SRIHARIKOTA (SRI)
aabbcc
Your satellite tracking list
Your tracking list is empty




NASA's NSSDC Master Catalog

Two Line Element Set (TLE):
1 41987U 17008AR  19046.85423410 +.00001083 +00000-0 +46190-4 0  9998
2 41987 097.4225 115.1527 0006701 206.8788 153.2103 15.25066114111037
Source of the keplerian elements: AFSPC